This is the latest recevied weather packets stored in our database for station/object YO3FVR-WX. If no packets are shown the sender has not sent any weather packets the latest 10 day(s).
| Time | Temp. | Humidity | Pressure | Rain* | Wind** | Luminosity | Snow |
|---|---|---|---|---|---|---|---|
| 1777784082 | 6.11° C | 77% | 1017.8 hPa | 0 mm | - | - | - |
| 1777782852 | 5.56° C | 77% | 1017.7 hPa | 0 mm | - | - | - |
| 1777781623 | 5.56° C | 77% | 1017.6 hPa | 0 mm | - | - | - |
| 1777780393 | 5° C | 78% | 1017.4 hPa | 0 mm | - | - | - |
| 1777779163 | 5° C | 77% | 1017.3 hPa | 0 mm | - | - | - |
| 1777777933 | 5° C | 77% | 1017.1 hPa | 0 mm | - | - | - |
| 1777776702 | 5.56° C | 77% | 1017 hPa | 0 mm | - | - | - |
| 1777775502 | 5.56° C | 77% | 1016.9 hPa | 0 mm | - | - | - |
| 1777774273 | 5.56° C | 76% | 1016.9 hPa | 0 mm | - | - | - |
| 1777773045 | 6.11° C | 76% | 1017 hPa | 0 mm | - | - | - |
| 1777771843 | 6.67° C | 76% | 1017.1 hPa | 0 mm | - | - | - |
| 1777770614 | 7.22° C | 75% | 1017.2 hPa | 0 mm | - | - | - |
| 1777769384 | 7.78° C | 75% | 1017.2 hPa | 0 mm | - | - | - |
| 1777768155 | 8.33° C | 75% | 1017.1 hPa | 0 mm | - | - | - |
| 1777766928 | 8.33° C | 76% | 1017.2 hPa | 0 mm | - | - | - |
| 1777765694 | 7.78° C | 77% | 1017.3 hPa | 0 mm | - | - | - |
| 1777764462 | 7.78° C | 76% | 1017.4 hPa | 0 mm | - | - | - |
| 1777763233 | 7.78° C | 75% | 1017.5 hPa | 0 mm | - | - | - |
| 1777762003 | 7.78° C | 75% | 1017.6 hPa | 0 mm | - | - | - |
| 1777760773 | 7.22° C | 75% | 1017.6 hPa | 0 mm | - | - | - |
| 1777759573 | 7.22° C | 75% | 1017.7 hPa | 0 mm | - | - | - |
| 1777758343 | 7.22° C | 75% | 1018 hPa | 0 mm | - | - | - |
| 1777757113 | 7.78° C | 74% | 1018 hPa | 0 mm | - | - | - |
| 1777755913 | 8.33° C | 73% | 1018 hPa | 0 mm | - | - | - |
| 1777754712 | 8.33° C | 72% | 1018 hPa | 0 mm | - | - | - |
* Rain latest hour (hover to see other rain measurements)
** Current wind speed in m/s (hover to see current wind gust speed)